Regional Weather Roundup
Issued by NWS

Home | Current Version | Previous Version | Graphics & Text | Print | Product List | Glossary On
Versions: 1 2 3 4 5 6 7 8 9 10 11 12 13 14 15 16 17 18 19 20 21 22 23 24 25 26 27 28 29 30 31 32 33 34 35 36 37 38 39 40 41 42 43 44 45 46 47 48 49 50
000
ASUS45 KBOU 231707
RWRCO

WEATHER ROUNDUP FOR COLORADO
NATIONAL WEATHER SERVICE DENVER/BOULDER CO
1100 AM MDT SAT AUG 23 2014

NOTE: "FAIR" INDICATES FEW OR NO CLOUDS BELOW 12000 FEET WITH NO
SIGNIFICANT WEATHER AND/OR OBSTRUCTIONS TO VISIBILITY.

COZ001>005-013-030-031-231800-
...NORTHWEST COLORADO...

CITY           SKY/WX    TMP DP  RH WIND       PRES   REMARKS
CRAIG          LGT RAIN  53  48  83 W6        30.12S
HAYDEN         PTSUNNY   52  46  82 NW6       30.12S
MEEKER         LGT RAIN  52  49  89 SE3       30.13S
MOUNT WERNER   NOT AVBL
STEAMBOAT SPGS CLOUDY    50  46  87 W5        30.13R
WALDEN         CLOUDY    55  39  54 S16G24    30.12F
$$

COZ006>008-011-231800-
...WEST CENTRAL VALLEYS...

CITY           SKY/WX    TMP DP  RH WIND       PRES   REMARKS
GRAND JUNCTION LGT RAIN  57  55  93 CALM      30.10S
MONTROSE       CLOUDY    63  55  75 N5        30.12S
EAGLE          LGT RAIN  54  52  94 W7        30.14S
RIFLE          RAIN      54  51  90 NW8       30.14R FOG
DELTA          RAIN      62  56  80 CALM      30.11R
NUCLA          CLOUDY    68  50  52 SW13      30.16S
$$

COZ017>023-064>068-231800-
...SOUTHWEST COLORADO...

CITY           SKY/WX    TMP DP  RH WIND       PRES   REMARKS
DURANGO        PTSUNNY   63  53  70 CALM      30.21S
CORTEZ         PTSUNNY   67  52  58 SW6       30.16S
PAGOSA SPRINGS CLOUDY    58  48  70 CALM      30.27S
TELLURIDE      CLOUDY    57  43  58 SW5       30.29S
WOLF CREEK PAS NOT AVBL
$$

COZ009-010-012-014-032>034-037-058>063-231800-
...CENTRAL COLORADO...

CITY           SKY/WX    TMP DP  RH WIND       PRES   REMARKS
ASPEN          LGT RAIN  54  48  80 NW6       30.16F
BUENA VISTA    PTSUNNY   65  38  37 W7        30.14F
COPPER MTN     CLOUDY    46  34  61 S13G25    30.37F
BERTHOUD PASS  PTSUNNY   39  37  93 W18       30.39S
COTTONWOOD PAS PTSUNNY   55  41  58 W8G16     30.26F
GUNNISON       PTSUNNY   57  46  67 W6        30.21S
KREMMLING      CLOUDY    59  45  58 CALM      30.14F
LEADVILLE      CLOUDY    53  37  54 S9        30.24F
MONARCH PASS   CLOUDY    43  39  87 SW28G36   30.48F
SALIDA         PTSUNNY   68  45  42 S15G25    30.20F
SUNLIGHT       FOG       45  45 100 CALM      30.31F VSB 3/4
WILKERSON PASS NOT AVBL
$$

COZ069>075-231800-
...SAN LUIS VALLEY/SANGRE DE CRISTO MOUNTAINS...

CITY           SKY/WX    TMP DP  RH WIND       PRES   REMARKS
ALAMOSA        MOSUNNY   66  50  56 S15G22    30.19F
LA VETA PASS   NOT AVBL
SAGUACHE       PTSUNNY   57  46  67 S10       30.22F
$$

COZ035-036-038>040-231800-
...NORTHERN COLORADO FRONT RANGE...

CITY           SKY/WX    TMP DP  RH WIND       PRES   REMARKS
DENVER INTL AP MOSUNNY   71  56  58 VRB3      29.96F
DMNS CITY PARK   N/A     74  56  54 NE2       29.94F
AURORA         NOT AVBL
FRONT RANGE AP MOSUNNY   72  59  64 CALM      29.98
ERIE MUNI ARPT MOSUNNY   71  59  66 SE5       29.95S
BOULDER MUN AP SUNNY     70  57  64 SE5       29.95S
CENTENNIAL     MOSUNNY   72  52  49 VRB3      29.98F
BROOMFIELD     PTSUNNY   68  59  73 E6        29.98F
FORT COLLINS   SUNNY     70  57  64 SE6       29.95F
LONGMONT       MOSUNNY   75  59  57 NE5       29.96S
$$

COZ041-046-047-076>085-087-088-231800-
...PIKES PEAK/PALMER DIVIDE AND SOUTHERN FOOTHILLS...

CITY           SKY/WX    TMP DP  RH WIND       PRES   REMARKS
COLO. SPRINGS  MOSUNNY   71  50  47 E7        30.02F
A. F. ACADEMY  SUNNY     74  41  30 NW13G24   30.03F
ELLICOTT       SUNNY     71  53  52 SW8       30.01S
FALCON         SUNNY     72  47  40 SW10      30.06S
FORT CARSON    SUNNY     70  55  60 VRB2      30.00F
LIMON          SUNNY     72  53  51 W10       29.97S
MONUMENT HILL  SUNNY     70  41  35 NW5       30.05S
TRINIDAD       SUNNY     78  44  29 W13       30.03S
$$

COZ042>045-048>051-090-091-231800-
...NORTHEAST COLORADO...

CITY           SKY/WX    TMP DP  RH WIND       PRES   REMARKS
GREELEY ARPT   MOSUNNY   72  55  56 CALM      29.94F
AKRON          MOSUNNY   70  59  68 VRB7      29.93F
BURLINGTON     MOSUNNY   75  60  59 SW6       29.92F
WRAY             N/A     76  61  60 E3        29.89F
STERLING       MOSUNNY   73  63  68 NE5       29.90S
HOLYOKE        NOT AVBL
FORT MORGAN    CLOUDY    71  57  62 CALM      29.94R
$$

COZ086-089-092>099-231800-
...SOUTHEAST COLORADO...

CITY           SKY/WX    TMP DP  RH WIND       PRES   REMARKS
PUEBLO         SUNNY     81  43  26 W15       29.92F
LA JUNTA       SUNNY     80  53  39 SW9       29.92S
LAMAR          SUNNY     83  54  36 SW9G20    29.88F
SPRINGFIELD      N/A     85  47  26 SW15G23   29.94F
$$



USA.gov is the U.S. government's official web portal to all federal, state and local government web resources and services.